QPF
0.00 0.00 0.00 0.00 0.00 0.00 0.00 0.00 0.00 0.00 0.00 0.00 0.00 0.00 0.00 0.00 0.00 0.00 0.00 0.00 0.00 0.00 0.00 0.00 0.00 0.00 0.00 0.00 0.00 0.00 0.00 0.00 0.01 0.00 0.00 0.01 0.00 0.01 0.00 0.00 0.00 0.00 0.00 0.00
0.00 0.00 0.00 0.00 0.00 0.00 0.00 0.00 0.00 0.00 0.00 0.00 0.00 0.00 0.00 0.00 0.00 0.00 0.00 0.00 0.00 0.00 0.00 0.00 0.00 0.00 0.00 0.00 0.00 0.00 0.00 0.00 0.00 0.00 0.00 0.00 0.00 0.00 0.00 0.00 0.00 0.00 0.00 0.00
0.00 0.00 0.00 0.00 0.00 0.00 0.00 0.00 0.00 0.00 0.00 0.00 0.00 0.00 0.00 0.00 0.00 0.00 0.00 0.00 0.00 0.00 0.00 0.00 0.00 0.00 0.00 0.00 0.00 0.01 0.00 0.00 0.00 0.00 0.00 0.00 0.00 0.00 0.00 0.00 0.00 0.00 0.00 0.00
0.00 0.00 0.00 0.00 0.00 0.00 0.00 0.00 0.00 0.00 0.00 0.00 0.00 0.00 0.00 0.00 0.00 0.00 0.00 0.00 0.00 0.00 0.00 0.00 0.00 0.00 0.00 0.00 0.00 0.01 0.01 0.00 0.00 0.00 0.00 0.00 0.00 0.00 0.00 0.00 0.00 0.00 0.00 0.00
0.00 0.00 0.00 0.00 0.00 0.00 0.00 0.00 0.00 0.00 0.00 0.00 0.00 0.00 0.00 0.00 0.00 0.00 0.00 0.00 0.00 0.00 0.00 0.00 0.00 0.00 0.00 0.00 0.00 0.01 0.02 0.00 0.00 0.00 0.00 0.00 0.00 0.00 0.00 0.00 0.00 0.00 0.00 0.00
0.00 0.00 0.00 0.00 0.00 0.00 0.00 0.00 0.00 0.00 0.00 0.00 0.00 0.00 0.00 0.00 0.00 0.00 0.00 0.00 0.00 0.00 0.00 0.00 0.00 0.00 0.00 0.00 0.00 0.01 0.03 0.00 0.00 0.00 0.00 0.00 0.00 0.00 0.00 0.00 0.00 0.00 0.00 0.00
0.00 0.00 0.00 0.00 0.00 0.00 0.00 0.00 0.00 0.00 0.00 0.00 0.00 0.00 0.00 0.00 0.00 0.00 0.00 0.00 0.00 0.00 0.00 0.00 0.00 0.00 0.00 0.00 0.00 0.00 0.00 0.00 0.00 0.00 0.00 0.00 0.00 0.00 0.00 0.00 0.00 0.00 0.00 0.00
0.00 0.00 0.00 0.00 0.00 0.00 0.00 0.00 0.00 0.00 0.00 0.00 0.00 0.00 0.00 0.00 0.00 0.00 0.00 0.00 0.00 0.00 0.00 0.00 0.00 0.00 0.00 0.00 0.00 0.00 0.00 0.00 0.00 0.00 0.00 0.00 0.00 0.00 0.00 0.00 0.00 0.00 0.00 0.00
0.00 0.00 0.00 0.00 0.00 0.00 0.00 0.00 0.00 0.00 0.00 0.00 0.00 0.00 0.00 0.00 0.00 0.00 0.00 0.00 0.00 0.00 0.00 0.00 0.00 0.00 0.00 0.00 0.00 0.00 0.00 0.00 0.01 0.01 0.00 0.00 0.00 0.00 0.00 0.00 0.00 0.00 0.00 0.00
0.00 0.00 0.00 0.00 0.00 0.00 0.00 0.00 0.02 0.01 0.00 0.00 0.00 0.00 0.00 0.00 0.00 0.00 0.00 0.00 0.00 0.00 0.00 0.00 0.00 0.00 0.00 0.01 0.02 0.00 0.00 0.00 0.00 0.01 0.01 0.00 0.00 0.00 0.00 0.00 0.00 0.00 0.00 0.00
0.00 0.00 0.00 0.00 0.00 0.00 0.00 0.00 0.01 0.01 0.00 0.00 0.00 0.00 0.00 0.00 0.00 0.00 0.00 0.00 0.00 0.00 0.00 0.00 0.00 0.00 0.00 0.00 0.02 0.02 0.01 0.01 0.00 0.00 0.00 0.01 0.01 0.00 0.00 0.00 0.00 0.00 0.00 0.00
0.00 0.00 0.00 0.00 0.00 0.00 0.00 0.00 0.00 0.00 0.00 0.00 0.00 0.00 0.00 0.00 0.00 0.00 0.00 0.00 0.00 0.00 0.00 0.00 0.00 0.00 0.00 0.00 0.00 0.00 0.01 0.01 0.01 0.00 0.00 0.00 0.01 0.01 0.00 0.00 0.00 0.00 0.00 0.00
0.00 0.00 0.00 0.00 0.00 0.00 0.00 0.00 0.00 0.00 0.00 0.00 0.00 0.00 0.00 0.00 0.00 0.00 0.00 0.00 0.00 0.00 0.00 0.00 0.00 0.00 0.00 0.00 0.00 0.00 0.00 0.01 0.02 0.01 0.00 0.00 0.00 0.01 0.01 0.01 0.00 0.00 0.00 0.00
0.00 0.00 0.00 0.00 0.00 0.00 0.00 0.00 0.00 0.00 0.00 0.00 0.00 0.00 0.00 0.00 0.00 0.00 0.00 0.00 0.00 0.00 0.00 0.00 0.00 0.00 0.00 0.00 0.00 0.00 0.00 0.00 0.01 0.02 0.01 0.01 0.00 0.00 0.01 0.03 0.02 0.01 0.01 0.00
0.00 0.00 0.00 0.00 0.00 0.00 0.00 0.00 0.00 0.00 0.00 0.00 0.00 0.00 0.00 0.00 0.00 0.00 0.00 0.00 0.00 0.00 0.00 0.00 0.00 0.00 0.00 0.00 0.00 0.00 0.00 0.00 0.00 0.01 0.01 0.01 0.01 0.00 0.00 0.00 0.02 0.03 0.04 0.03
0.00 0.00 0.00 0.00 0.00 0.00 0.00 0.00 0.00 0.00 0.00 0.00 0.00 0.00 0.00 0.00 0.00 0.00 0.00 0.00 0.00 0.00 0.00 0.00 0.00 0.00 0.00 0.00 0.00 0.00 0.00 0.00 0.00 0.00 0.01 0.01 0.01 0.00 0.00 0.00 0.00 0.00 0.01 0.02
0.00 0.00 0.00 0.00 0.00 0.00 0.00 0.00 0.00 0.00 0.00 0.00 0.00 0.00 0.00 0.00 0.00 0.00 0.00 0.00 0.00 0.00 0.00 0.00 0.00 0.00 0.00 0.00 0.00 0.00 0.00 0.00 0.00 0.00 0.00 0.01 0.01 0.00 0.00 0.00 0.00 0.00 0.00 0.00
0.00 0.00 0.00 0.00 0.00 0.00 0.00 0.00 0.00 0.00 0.00 0.00 0.00 0.00 0.00 0.00 0.00 0.00 0.00 0.00 0.00 0.00 0.00 0.00 0.00 0.00 0.00 0.00 0.00 0.00 0.00 0.00 0.00 0.00 0.00 0.00 0.00 0.00 0.00 0.00 0.00 0.00 0.00 0.00
0.00 0.00 0.01 0.01 0.00 0.00 0.00 0.00 0.00 0.00 0.00 0.00 0.00 0.00 0.00 0.00 0.00 0.00 0.00 0.00 0.00 0.00 0.00 0.00 0.00 0.00 0.00 0.00 0.00 0.00 0.00 0.00 0.00 0.00 0.00 0.00 0.00 0.00 0.00 0.00 0.00 0.00 0.00 0.00
0.00 0.00 0.00 0.00 0.00 0.00 0.00 0.00 0.00 0.00 0.00 0.00 0.00 0.00 0.00 0.00 0.00 0.00 0.00 0.00 0.00 0.00 0.00 0.00 0.00 0.00 0.00 0.00 0.00 0.00 0.00 0.00 0.00 0.00 0.00 0.00 0.00 0.00 0.00 0.00 0.00 0.00 0.00 0.00
0.00 0.00 0.00 0.00 0.00 0.00 0.00 0.00 0.00 0.00 0.00 0.00 0.00 0.00 0.00 0.00 0.00 0.00 0.00 0.00 0.00 0.00 0.00 0.00 0.00 0.00 0.00 0.00 0.00 0.00 0.00 0.00 0.00 0.00 0.00 0.00 0.00 0.00 0.00 0.00 0.00 0.00 0.00 0.00
0.00 0.00 0.00 0.00 0.00 0.00 0.00 0.00 0.00 0.00 0.00 0.00 0.00 0.00 0.00 0.00 0.00 0.00 0.00 0.00 0.00 0.00 0.00 0.00 0.00 0.00 0.00 0.00 0.00 0.00 0.00 0.00 0.00 0.00 0.00 0.00 0.00 0.00 0.00 0.00 0.00 0.00 0.00 0.00
0.00 0.00 0.00 0.00 0.00 0.00 0.00 0.00 0.00 0.00 0.00 0.00 0.00 0.00 0.00 0.00 0.00 0.00 0.00 0.00 0.00 0.00 0.00 0.00 0.00 0.00 0.00 0.00 0.00 0.00 0.00 0.00 0.00 0.00 0.00 0.00 0.00 0.00 0.00 0.00 0.00 0.00 0.00 0.00
0.00 0.00 0.00 0.00 0.00 0.00 0.00 0.00 0.00 0.00 0.00 0.00 0.00 0.00 0.00 0.00 0.00 0.00 0.00 0.00 0.00 0.00 0.00 0.00 0.00 0.00 0.00 0.00 0.00 0.00 0.00 0.00 0.00 0.00 0.00 0.00 0.00 0.00 0.00 0.00 0.00 0.00 0.00 0.00
0.00 0.00 0.00 0.00 0.00 0.00 0.00 0.00 0.00 0.00 0.00 0.00 0.00 0.00 0.00 0.00 0.00 0.00 0.00 0.00 0.00 0.00 0.00 0.00 0.00 0.00 0.00 0.00 0.00 0.00 0.00 0.00 0.00 0.00 0.00 0.00 0.00 0.00 0.00 0.00 0.00 0.00 0.00 0.00
0.00 0.00 0.00 0.00 0.00 0.00 0.00 0.00 0.00 0.00 0.00 0.00 0.00 0.00 0.00 0.00 0.00 0.00 0.00 0.00 0.00 0.00 0.00 0.00 0.00 0.00 0.00 0.00 0.00 0.00 0.00 0.00 0.00 0.00 0.00 0.00 0.00 0.00 0.00 0.00 0.00 0.00 0.00 0.00
MSLP
1011.85 1012.21 1011.33 1011.70 1011.57 1011.77 1012.09 1012.08 1011.76 1011.31 1010.69 1010.48 1009.79 1008.91 1007.98 1006.97 1007.17 1006.79 1005.89 1005.81 1005.53 1005.37 1004.59 1004.44 1004.63 1005.21 1005.99 1006.73 1007.31 1008.05 1008.44 1008.71 1009.34 1009.91 1010.26 1010.43 1010.56 1010.69 1012.16 1013.45 1014.75 1015.21 1015.59 1015.94
1012.32 1010.77 1011.59 1011.90 1012.14 1012.33 1012.19 1012.09 1011.48 1011.07 1010.82 1010.66 1009.86 1008.41 1007.74 1006.65 1005.93 1005.49 1005.13 1005.27 1005.16 1004.89 1004.35 1004.26 1004.51 1005.07 1005.63 1006.11 1006.87 1007.20 1007.13 1007.60 1008.38 1008.83 1009.52 1009.44 1009.90 1009.62 1010.73 1012.47 1014.21 1014.53 1014.97 1015.49
1010.82 1010.20 1010.20 1011.29 1011.60 1011.95 1011.71 1011.68 1011.74 1011.40 1011.18 1010.55 1010.18 1008.29 1007.27 1005.67 1004.97 1004.48 1004.49 1004.46 1004.54 1004.42 1004.20 1004.31 1004.62 1004.88 1005.45 1005.99 1006.34 1006.24 1007.08 1006.93 1007.83 1008.07 1008.54 1009.25 1009.58 1009.65 1011.15 1012.68 1014.01 1014.31 1014.30 1014.87
1010.79 1010.28 1010.23 1010.54 1010.75 1011.38 1010.96 1010.99 1011.34 1011.49 1012.02 1011.63 1010.66 1009.45 1007.69 1005.91 1004.92 1004.11 1004.13 1003.98 1004.06 1003.99 1003.92 1004.23 1004.60 1004.88 1004.96 1005.22 1005.72 1006.12 1006.49 1006.79 1007.77 1007.99 1007.82 1007.91 1008.78 1010.07 1011.15 1012.12 1012.91 1013.46 1013.66 1014.35
1009.90 1009.69 1009.78 1009.72 1009.81 1010.32 1010.07 1010.51 1010.77 1011.28 1011.80 1011.97 1011.57 1011.43 1007.82 1006.50 1005.24 1003.80 1003.66 1003.62 1003.57 1003.75 1003.97 1004.25 1004.47 1004.40 1004.61 1005.09 1005.27 1005.86 1006.04 1006.80 1007.64 1008.10 1008.24 1008.02 1008.66 1009.05 1010.23 1011.47 1012.30 1012.97 1013.60 1013.98
1009.87 1009.72 1009.56 1008.97 1008.92 1009.34 1009.81 1010.31 1011.14 1011.85 1012.79 1012.44 1011.49 1011.27 1008.52 1006.47 1005.05 1004.13 1003.57 1003.59 1003.60 1003.68 1004.00 1004.20 1004.30 1004.79 1004.85 1005.34 1005.65 1005.99 1006.24 1006.88 1007.53 1007.98 1008.37 1008.61 1008.63 1009.19 1010.29 1011.26 1011.98 1012.98 1013.57 1013.93
1010.39 1009.45 1009.15 1008.99 1009.14 1009.25 1009.76 1010.42 1011.89 1013.03 1013.30 1012.58 1011.33 1010.99 1008.08 1006.18 1005.18 1004.56 1004.03 1003.94 1004.13 1004.05 1004.07 1004.27 1004.50 1004.99 1005.14 1005.12 1005.47 1005.90 1006.08 1006.75 1007.67 1008.15 1008.34 1008.64 1008.68 1009.31 1010.16 1010.97 1011.86 1012.71 1013.25 1013.74
1011.95 1010.72 1009.52 1008.58 1008.62 1009.26 1009.72 1010.05 1010.94 1011.85 1012.64 1012.30 1011.78 1010.36 1007.73 1006.18 1005.47 1004.79 1004.55 1004.52 1004.75 1004.77 1004.56 1004.38 1004.55 1004.67 1005.07 1005.15 1005.30 1005.73 1006.14 1006.81 1007.55 1008.06 1008.53 1008.95 1009.35 1009.91 1010.18 1011.18 1011.89 1012.42 1012.72 1013.08
1014.23 1012.42 1010.72 1009.69 1009.74 1009.41 1010.19 1010.31 1010.12 1011.49 1012.46 1012.73 1011.55 1009.96 1007.67 1007.36 1007.41 1006.20 1005.88 1005.71 1005.78 1005.89 1005.70 1005.03 1004.86 1004.82 1004.95 1005.22 1005.43 1005.61 1006.07 1006.82 1007.46 1007.65 1008.38 1008.98 1009.82 1010.36 1010.48 1011.27 1011.74 1012.23 1012.53 1013.02
1016.15 1014.77 1012.80 1011.46 1010.30 1010.95 1011.74 1011.43 1011.67 1012.10 1012.87 1013.25 1012.11 1011.38 1010.81 1010.54 1009.96 1009.47 1009.08 1008.79 1008.18 1007.43 1006.65 1006.10 1005.48 1005.31 1005.09 1005.04 1005.23 1005.64 1006.12 1006.50 1007.12 1007.34 1007.87 1008.68 1009.25 1009.93 1010.32 1010.75 1011.23 1011.66 1012.09 1012.73
1016.64 1016.72 1014.76 1013.61 1014.79 1015.20 1014.34 1014.57 1013.91 1013.12 1013.27 1013.27 1013.41 1012.91 1012.93 1012.88 1012.04 1011.54 1011.02 1010.47 1009.95 1009.08 1008.43 1007.40 1006.48 1005.61 1005.38 1005.21 1005.29 1005.58 1005.94 1006.57 1006.87 1007.29 1007.50 1008.19 1008.99 1009.48 1009.86 1010.10 1010.65 1011.33 1011.80 1012.21
1017.17 1017.53 1017.57 1016.75 1016.54 1016.62 1017.03 1017.39 1016.51 1015.79 1015.97 1015.12 1014.51 1013.80 1012.94 1012.89 1012.58 1012.02 1011.60 1011.13 1010.25 1009.80 1009.11 1008.32 1007.67 1006.56 1005.85 1005.71 1005.49 1005.43 1005.72 1006.20 1006.75 1007.03 1007.43 1007.95 1008.55 1008.99 1009.45 1009.92 1010.38 1011.18 1011.55 1012.26
1017.87 1018.54 1018.78 1018.04 1018.18 1018.16 1018.51 1018.51 1018.45 1018.06 1018.14 1017.06 1016.33 1013.83 1012.52 1012.45 1012.37 1012.33 1011.93 1011.17 1010.47 1009.79 1009.46 1009.18 1008.53 1007.98 1006.82 1006.28 1006.24 1006.14 1006.18 1006.19 1006.48 1006.75 1007.25 1007.72 1008.07 1008.85 1009.34 1009.91 1010.38 1011.14 1011.87 1012.16
1018.35 1019.16 1019.60 1019.76 1019.48 1019.73 1019.56 1019.67 1019.74 1019.66 1019.67 1018.56 1017.27 1015.79 1013.30 1013.39 1013.37 1012.88 1012.25 1011.40 1010.72 1010.29 1009.75 1009.63 1009.25 1008.96 1008.34 1007.33 1006.80 1006.64 1006.64 1006.57 1006.59 1006.80 1007.19 1007.61 1007.72 1008.15 1008.99 1009.49 1010.02 1010.71 1011.18 1011.77
1019.38 1020.15 1020.20 1020.27 1020.16 1020.08 1020.15 1020.17 1020.03 1019.89 1020.00 1019.28 1016.92 1016.67 1015.85 1014.40 1014.44 1013.93 1013.37 1012.51 1011.14 1010.57 1009.85 1009.38 1009.44 1009.43 1008.93 1008.31 1007.67 1007.18 1006.83 1006.64 1006.56 1006.64 1006.84 1007.05 1007.38 1007.84 1008.36 1009.14 1009.56 1010.08 1010.76 1011.19
1020.39 1020.91 1020.83 1020.69 1020.31 1020.62 1020.59 1020.78 1020.82 1020.46 1020.00 1019.47 1018.44 1016.11 1016.50 1015.76 1015.28 1014.41 1013.87 1013.27 1012.46 1011.65 1010.62 1010.14 1009.72 1009.61 1009.56 1009.20 1008.44 1007.83 1007.33 1006.89 1006.66 1006.55 1006.57 1006.70 1007.02 1007.26 1007.84 1008.74 1009.21 1009.51 1010.17 1010.60
1021.47 1021.62 1021.76 1021.32 1020.98 1021.26 1022.26 1023.43 1022.62 1022.04 1021.16 1020.44 1019.45 1017.77 1018.14 1017.41 1016.71 1016.49 1015.59 1014.78 1013.30 1012.28 1011.85 1010.91 1010.11 1009.70 1009.44 1009.51 1009.37 1008.37 1007.71 1007.02 1006.53 1006.42 1006.46 1006.60 1006.91 1007.25 1007.75 1008.08 1008.75 1009.33 1009.82 1010.36
1021.98 1022.43 1022.43 1022.27 1022.08 1022.90 1024.71 1024.87 1023.96 1023.08 1021.23 1021.33 1020.64 1019.87 1019.84 1019.35 1018.32 1017.40 1016.74 1014.95 1013.63 1013.03 1012.43 1011.08 1010.30 1009.67 1009.56 1009.60 1009.54 1008.99 1008.39 1007.79 1007.47 1007.07 1006.96 1006.84 1007.16 1007.40 1007.95 1008.45 1008.90 1009.43 1009.74 1009.95
1023.18 1023.10 1023.07 1023.30 1023.38 1024.27 1025.14 1025.75 1025.78 1025.04 1022.21 1022.15 1022.00 1020.90 1021.00 1020.54 1019.17 1015.98 1015.57 1014.76 1014.02 1013.27 1012.62 1011.63 1010.48 1009.97 1009.76 1010.11 1009.72 1009.52 1009.31 1008.90 1008.47 1008.20 1008.31 1007.93 1007.74 1007.91 1008.41 1008.68 1009.06 1009.28 1009.55 1010.02
1024.73 1024.72 1024.91 1024.94 1025.02 1025.26 1027.09 1026.74 1025.58 1024.86 1023.54 1022.79 1022.57 1021.18 1020.95 1020.26 1019.41 1014.34 1015.10 1014.23 1013.97 1013.29 1012.22 1011.47 1010.37 1009.83 1009.85 1010.10 1010.22 1010.27 1010.21 1009.99 1009.68 1009.46 1009.23 1009.25 1008.97 1008.98 1009.21 1009.49 1009.42 1009.65 1009.48 1009.87
1026.70 1026.93 1027.21 1026.91 1026.45 1026.38 1027.01 1026.57 1024.75 1025.11 1024.82 1023.48 1022.92 1021.50 1020.21 1019.50 1017.94 1015.01 1015.60 1014.41 1013.74 1013.08 1011.72 1010.91 1009.71 1009.71 1009.93 1010.31 1010.38 1010.61 1010.67 1010.55 1010.40 1010.15 1009.95 1009.80 1010.02 1010.07 1010.28 1010.30 1010.31 1010.29 1010.15 1010.10
1029.75 1029.57 1029.19 1028.65 1028.02 1027.84 1027.88 1027.22 1027.73 1027.53 1025.70 1024.49 1022.81 1020.92 1018.47 1016.64 1014.55 1013.79 1014.22 1014.11 1013.53 1012.94 1012.23 1011.10 1010.52 1009.78 1010.16 1010.68 1010.98 1011.10 1010.91 1010.84 1010.74 1010.77 1010.83 1010.99 1010.92 1011.06 1011.03 1010.92 1011.18 1011.04 1011.10 1011.31
1031.07 1031.37 1030.98 1030.68 1030.26 1029.86 1029.41 1028.83 1028.15 1027.22 1025.78 1023.92 1022.06 1019.18 1015.51 1012.71 1011.24 1011.10 1012.49 1013.11 1013.08 1013.07 1012.43 1011.20 1011.35 1010.61 1010.90 1011.69 1011.59 1011.30 1011.48 1011.16 1011.33 1011.56 1011.81 1011.79 1011.85 1011.95 1012.23 1012.01 1012.08 1012.11 1012.16 1012.47
1032.09 1031.84 1031.49 1031.02 1030.55 1030.20 1029.47 1028.70 1027.91 1026.75 1025.30 1023.60 1021.63 1018.49 1014.82 1012.39 1010.99 1011.29 1012.16 1012.67 1012.71 1012.55 1012.21 1011.39 1011.58 1011.34 1011.06 1012.65 1012.17 1012.07 1011.75 1011.69 1011.97 1012.31 1012.69 1012.74 1012.69 1012.86 1012.95 1012.99 1012.94 1012.89 1013.17 1013.25
1033.76 1033.09 1032.52 1031.60 1030.97 1030.15 1029.03 1028.76 1027.84 1026.45 1025.04 1023.36 1021.45 1019.45 1017.08 1014.25 1013.15 1012.69 1012.71 1012.90 1012.87 1013.04 1012.26 1012.06 1012.19 1012.49 1012.45 1013.37 1013.17 1012.70 1012.04 1012.33 1012.95 1013.28 1013.51 1013.66 1013.81 1013.98 1014.06 1014.11 1014.31 1014.35 1014.55 1014.39
1034.81 1034.52 1034.00 1033.11 1032.60 1032.18 1030.79 1029.60 1028.44 1026.97 1025.51 1024.02 1022.44 1020.44 1018.53 1016.83 1016.07 1015.19 1015.00 1015.09 1014.90 1015.13 1013.86 1013.10 1013.57 1013.66 1014.49 1014.44 1013.97 1013.19 1013.41 1013.10 1014.09 1014.18 1014.35 1014.35 1014.56 1014.91 1015.11 1015.28 1015.37 1015.35 1015.35 1015.25
Thickness
5572 5568 5579 5580 5583 5582 5578 5575 5575 5581 5591 5588 5595 5602 5616 5630 5622 5627 5638 5641 5644 5645 5655 5657 5654 5647 5636 5623 5609 5593 5586 5580 5573 5559 5563 5581 5597 5610 5615 5618 5617 5627 5629 5637
5552 5567 5565 5564 5562 5561 5565 5561 5568 5573 5580 5574 5582 5598 5609 5624 5631 5635 5638 5634 5636 5643 5650 5650 5645 5639 5631 5620 5608 5600 5595 5588 5575 5571 5568 5586 5598 5619 5624 5622 5616 5627 5628 5635
5548 5562 5563 5553 5551 5548 5552 5552 5552 5559 5565 5570 5574 5598 5604 5622 5630 5631 5631 5632 5636 5639 5642 5641 5637 5634 5626 5617 5609 5608 5593 5591 5583 5582 5585 5590 5593 5604 5610 5609 5611 5620 5631 5635
5530 5544 5545 5542 5542 5537 5540 5550 5550 5552 5542 5536 5568 5549 5583 5615 5621 5630 5625 5627 5629 5634 5638 5635 5631 5628 5625 5620 5614 5607 5602 5595 5585 5584 5587 5593 5597 5602 5603 5614 5620 5624 5631 5634
5526 5534 5523 5528 5534 5532 5540 5537 5542 5541 5529 5535 5549 5528 5569 5593 5607 5618 5625 5625 5630 5627 5628 5627 5625 5626 5623 5619 5617 5609 5605 5597 5590 5584 5588 5603 5608 5616 5618 5618 5621 5624 5627 5633
5511 5515 5518 5526 5531 5529 5533 5529 5513 5509 5500 5485 5538 5534 5546 5588 5608 5612 5620 5622 5621 5623 5620 5620 5620 5617 5616 5610 5608 5606 5602 5597 5596 5594 5595 5603 5611 5614 5613 5617 5619 5618 5622 5629
5503 5514 5514 5515 5514 5518 5517 5515 5488 5491 5501 5501 5484 5512 5562 5582 5596 5606 5607 5607 5607 5610 5612 5612 5613 5611 5610 5610 5607 5606 5605 5599 5592 5595 5599 5603 5610 5614 5614 5614 5615 5616 5621 5626
5467 5463 5495 5508 5512 5501 5500 5507 5481 5468 5472 5491 5502 5517 5557 5579 5582 5588 5596 5596 5597 5596 5600 5605 5607 5610 5606 5606 5607 5604 5601 5599 5594 5593 5599 5602 5603 5605 5608 5607 5608 5612 5619 5624
5409 5448 5464 5487 5480 5502 5491 5482 5508 5486 5481 5462 5498 5524 5555 5551 5542 5570 5574 5578 5577 5574 5579 5593 5599 5603 5606 5602 5600 5603 5601 5595 5593 5597 5594 5596 5594 5594 5599 5598 5603 5606 5612 5616
5376 5398 5431 5445 5471 5455 5456 5473 5477 5475 5465 5471 5489 5508 5494 5485 5498 5506 5517 5531 5542 5552 5563 5570 5584 5589 5600 5603 5599 5597 5596 5595 5593 5597 5596 5593 5594 5594 5598 5600 5603 5606 5610 5612
5365 5359 5392 5421 5391 5393 5414 5400 5423 5455 5457 5467 5461 5458 5460 5462 5476 5483 5492 5506 5517 5525 5536 5546 5565 5577 5584 5594 5596 5594 5594 5591 5593 5593 5595 5592 5590 5592 5596 5601 5603 5604 5606 5609
5350 5342 5343 5370 5378 5380 5371 5367 5385 5401 5417 5413 5424 5435 5463 5459 5464 5472 5480 5490 5503 5514 5523 5531 5539 5558 5568 5581 5589 5592 5592 5591 5590 5591 5591 5590 5588 5589 5592 5592 5597 5598 5599 5600
5330 5314 5300 5353 5353 5346 5343 5351 5358 5368 5367 5387 5400 5450 5454 5456 5455 5461 5467 5478 5489 5504 5510 5519 5525 5533 5551 5560 5572 5579 5582 5586 5588 5589 5587 5586 5587 5585 5585 5585 5588 5586 5587 5590
5311 5301 5302 5291 5321 5327 5329 5338 5346 5340 5331 5336 5361 5391 5430 5433 5436 5443 5455 5469 5478 5490 5500 5504 5514 5513 5523 5541 5552 5564 5569 5573 5577 5580 5580 5579 5583 5580 5577 5578 5579 5579 5584 5584
5276 5257 5286 5287 5295 5304 5313 5322 5333 5329 5329 5331 5373 5373 5397 5419 5418 5426 5437 5452 5471 5479 5489 5498 5501 5506 5508 5520 5533 5545 5556 5565 5570 5574 5576 5578 5578 5576 5576 5570 5573 5576 5576 5578
5260 5242 5269 5266 5287 5289 5299 5307 5304 5316 5327 5336 5349 5375 5379 5392 5402 5418 5429 5436 5447 5457 5471 5479 5491 5496 5500 5504 5516 5530 5541 5551 5560 5566 5570 5574 5575 5578 5575 5569 5570 5571 5571 5571
5245 5232 5247 5240 5273 5275 5258 5241 5260 5270 5287 5302 5320 5360 5330 5349 5367 5370 5383 5397 5425 5440 5450 5463 5477 5486 5494 5495 5501 5515 5526 5540 5552 5559 5563 5566 5567 5569 5570 5570 5566 5563 5562 5561
5247 5239 5258 5230 5265 5239 5217 5220 5237 5245 5279 5276 5294 5311 5296 5313 5329 5347 5364 5389 5409 5426 5431 5450 5464 5473 5482 5488 5494 5503 5512 5522 5531 5541 5549 5556 5556 5557 5556 5556 5555 5552 5552 5553
5238 5246 5256 5232 5255 5233 5216 5210 5209 5216 5246 5252 5251 5268 5272 5283 5302 5350 5370 5383 5393 5403 5415 5431 5448 5457 5468 5474 5485 5493 5498 5506 5515 5524 5527 5536 5541 5544 5544 5545 5545 5544 5544 5542
5227 5215 5198 5209 5212 5239 5196 5200 5216 5220 5228 5237 5235 5248 5251 5262 5265 5355 5356 5369 5377 5389 5410 5425 5441 5449 5456 5462 5469 5477 5483 5489 5497 5503 5511 5514 5521 5525 5527 5528 5531 5532 5536 5536
5200 5191 5184 5198 5189 5206 5196 5196 5219 5208 5218 5224 5227 5236 5242 5243 5269 5318 5326 5343 5359 5379 5401 5422 5436 5442 5447 5451 5457 5463 5470 5477 5484 5491 5497 5502 5504 5507 5509 5511 5513 5515 5518 5521
5161 5151 5172 5184 5187 5175 5187 5189 5178 5185 5200 5209 5221 5234 5250 5264 5285 5297 5305 5316 5336 5359 5380 5404 5418 5432 5434 5440 5442 5449 5458 5466 5473 5475 5479 5481 5487 5490 5494 5498 5498 5501 5502 5502
5158 5158 5157 5164 5169 5173 5172 5174 5177 5184 5193 5206 5219 5239 5268 5291 5309 5311 5298 5296 5316 5338 5366 5392 5399 5411 5417 5418 5428 5436 5443 5453 5457 5459 5461 5466 5469 5472 5473 5478 5481 5483 5486 5486
5160 5160 5159 5161 5170 5167 5168 5173 5178 5185 5196 5206 5216 5241 5267 5285 5296 5297 5294 5297 5306 5329 5351 5377 5388 5400 5407 5402 5413 5420 5431 5437 5442 5442 5442 5447 5451 5454 5457 5459 5462 5466 5467 5469
5149 5155 5153 5161 5168 5167 5179 5174 5178 5188 5194 5207 5212 5228 5242 5266 5277 5284 5289 5295 5308 5316 5337 5358 5371 5379 5389 5389 5398 5408 5420 5423 5421 5423 5425 5428 5432 5434 5437 5439 5440 5442 5443 5447
5144 5142 5142 5148 5150 5150 5160 5167 5174 5183 5192 5202 5207 5222 5235 5246 5247 5258 5268 5278 5288 5300 5325 5340 5349 5361 5363 5372 5385 5398 5402 5409 5402 5407 5409 5413 5416 5416 5417 5419 5420 5424 5426 5428